Time,TemperatureF,DewpointF,PressureIn,WindDirection,WindDirectionDegrees,WindSpeedMPH,WindSpeedGustMPH,Humidity,HourlyPrecipIn,Conditions,Clouds,dailyrainin,SolarRadiationWatts/m^2,SoftwareType,DateUTC
2013-02-19 00:00:00,25.2,15.4,30.23,WNW,283,0.0,0.0,66,0.00,,,0.00,0,Wunderground v.1.15,2013-02-19 05:00:00,
2013-02-19 00:05:00,25.4,15.3,30.24,WNW,283,0.0,0.0,65,0.00,,,0.00,0,Wunderground v.1.15,2013-02-19 05:05:00,
2013-02-19 00:15:00,25.7,15.6,30.24,WNW,283,0.0,0.0,65,0.00,,,0.00,0,Wunderground v.1.15,2013-02-19 05:15:00,
2013-02-19 00:25:00,26.0,15.8,30.24,WNW,283,0.0,0.0,65,0.00,,,0.00,0,Wunderground v.1.15,2013-02-19 05:25:00,
2013-02-19 00:30:00,26.1,15.9,30.24,WNW,283,0.0,0.0,65,0.00,,,0.00,0,Wunderground v.1.15,2013-02-19 05:30:00,
2013-02-19 00:39:00,26.4,16.2,30.23,WNW,283,0.0,0.0,65,0.00,,,0.00,0,Wunderground v.1.15,2013-02-19 05:39:00,
2013-02-19 00:45:00,26.6,16.4,30.23,WNW,283,0.0,0.0,65,0.00,,,0.00,0,Wunderground v.1.15,2013-02-19 05:45:00,
2013-02-19 00:54:00,26.8,17.0,30.23,WNW,283,0.0,0.0,66,0.00,,,0.00,0,Wunderground v.1.15,2013-02-19 05:54:00,
2013-02-19 01:00:00,26.8,16.6,30.22,WNW,283,0.0,0.0,65,0.00,,,0.00,0,Wunderground v.1.15,2013-02-19 06:00:00,
2013-02-19 01:05:00,26.8,17.0,30.22,WNW,283,0.0,0.0,66,0.00,,,0.00,0,Wunderground v.1.15,2013-02-19 06:05:00,
2013-02-19 01:10:00,26.8,17.3,30.22,WNW,283,0.0,0.0,67,0.00,,,0.00,0,Wunderground v.1.15,2013-02-19 06:10:00,
2013-02-19 01:20:00,26.5,17.7,30.21,WNW,283,0.0,0.0,69,0.00,,,0.00,0,Wunderground v.1.15,2013-02-19 06:20:00,
2013-02-19 01:30:00,26.2,17.7,30.21,WNW,283,0.0,0.0,70,0.00,,,0.00,0,Wunderground v.1.15,2013-02-19 06:30:00,
2013-02-19 01:40:00,26.0,17.6,30.20,WNW,283,0.0,0.0,70,0.00,,,0.00,0,Wunderground v.1.15,2013-02-19 06:40:00,
2013-02-19 01:45:00,25.8,17.4,30.20,WNW,283,0.0,0.0,70,0.00,,,0.00,0,Wunderground v.1.15,2013-02-19 06:45:00,
2013-02-19 01:50:00,25.7,16.9,30.20,WNW,283,0.0,0.0,69,0.00,,,0.00,0,Wunderground v.1.15,2013-02-19 06:50:00,
2013-02-19 01:55:00,25.6,17.5,30.19,WNW,283,0.0,0.0,71,0.00,,,0.00,0,Wunderground v.1.15,2013-02-19 06:55:00,
2013-02-19 02:04:00,25.5,17.4,30.19,WNW,283,0.0,0.0,71,0.00,,,0.00,0,Wunderground v.1.15,2013-02-19 07:04:00,
2013-02-19 02:10:00,25.6,18.1,30.19,WNW,283,0.0,0.0,73,0.00,,,0.00,0,Wunderground v.1.15,2013-02-19 07:10:00,
2013-02-19 02:15:00,25.7,18.6,30.19,WNW,283,0.0,0.0,74,0.00,,,0.00,0,Wunderground v.1.15,2013-02-19 07:15:00,
2013-02-19 02:25:00,26.2,19.4,30.19,WNW,283,0.0,0.0,75,0.00,,,0.00,0,Wunderground v.1.15,2013-02-19 07:25:00,
2013-02-19 02:34:00,26.6,19.7,30.18,WNW,283,0.0,0.0,75,0.00,,,0.00,0,Wunderground v.1.15,2013-02-19 07:34:00,
2013-02-19 02:40:00,26.7,19.5,30.19,WNW,283,0.0,0.0,74,0.00,,,0.00,0,Wunderground v.1.15,2013-02-19 07:40:00,
2013-02-19 02:45:00,26.7,19.8,30.19,WNW,283,0.0,0.0,75,0.00,,,0.00,0,Wunderground v.1.15,2013-02-19 07:45:00,
2013-02-19 02:50:00,26.8,20.2,30.18,WNW,283,0.0,0.0,76,0.00,,,0.00,0,Wunderground v.1.15,2013-02-19 07:50:00,
2013-02-19 02:55:00,26.9,20.3,30.18,WNW,283,0.0,0.0,76,0.00,,,0.00,0,Wunderground v.1.15,2013-02-19 07:55:00,
2013-02-19 03:05:00,26.8,19.9,30.18,WNW,283,0.0,0.0,75,0.00,,,0.00,0,Wunderground v.1.15,2013-02-19 08:05:00,
2013-02-19 03:15:00,26.6,19.7,30.17,WNW,283,0.0,0.0,75,0.00,,,0.00,0,Wunderground v.1.15,2013-02-19 08:15:00,
2013-02-19 03:20:00,26.5,19.6,30.17,WNW,283,0.0,0.0,75,0.00,,,0.00,0,Wunderground v.1.15,2013-02-19 08:20:00,
2013-02-19 03:25:00,26.3,19.5,30.17,WNW,283,0.0,0.0,75,0.00,,,0.00,0,Wunderground v.1.15,2013-02-19 08:25:00,
2013-02-19 03:30:00,26.2,19.7,30.17,WNW,283,0.0,0.0,76,0.00,,,0.00,0,Wunderground v.1.15,2013-02-19 08:30:00,
2013-02-19 03:39:00,26.0,20.4,30.17,WNW,283,0.0,0.0,79,0.00,,,0.00,0,Wunderground v.1.15,2013-02-19 08:39:00,
2013-02-19 03:44:00,26.0,21.0,30.17,WNW,283,0.0,0.0,81,0.00,,,0.00,0,Wunderground v.1.15,2013-02-19 08:44:00,
2013-02-19 03:50:00,26.1,21.6,30.17,WNW,283,0.0,0.0,83,0.00,,,0.00,0,Wunderground v.1.15,2013-02-19 08:50:00,
2013-02-19 03:55:00,26.3,22.1,30.17,WNW,283,0.0,0.0,84,0.00,,,0.00,0,Wunderground v.1.15,2013-02-19 08:55:00,
2013-02-19 04:05:00,26.6,22.7,30.16,WNW,283,0.0,0.0,85,0.00,,,0.00,0,Wunderground v.1.15,2013-02-19 09:05:00,
2013-02-19 04:10:00,26.9,23.3,30.16,WNW,283,0.0,0.0,86,0.00,,,0.00,0,Wunderground v.1.15,2013-02-19 09:10:00,
2013-02-19 04:20:00,27.4,23.8,30.16,WNW,283,0.0,0.0,86,0.00,,,0.00,0,Wunderground v.1.15,2013-02-19 09:20:00,
2013-02-19 04:30:00,27.7,24.3,30.16,WNW,283,0.0,0.0,87,0.00,,,0.00,0,Wunderground v.1.15,2013-02-19 09:30:00,
2013-02-19 04:35:00,27.9,24.5,30.16,WNW,283,0.0,0.0,87,0.00,,,0.00,0,Wunderground v.1.15,2013-02-19 09:35:00,
2013-02-19 04:40:00,28.2,25.1,30.16,WNW,283,0.0,0.0,88,0.00,,,0.00,0,Wunderground v.1.15,2013-02-19 09:40:00,
2013-02-19 04:50:00,28.6,25.5,30.16,WNW,283,0.0,0.0,88,0.00,,,0.00,0,Wunderground v.1.15,2013-02-19 09:50:00,
2013-02-19 05:00:00,28.6,24.9,30.15,WNW,283,0.0,0.0,86,0.00,,,0.00,0,Wunderground v.1.15,2013-02-19 10:00:00,
2013-02-19 05:10:00,28.2,24.3,30.15,WNW,283,0.0,0.0,85,0.00,,,0.00,0,Wunderground v.1.15,2013-02-19 10:10:00,
2013-02-19 05:15:00,28.0,23.8,30.16,WNW,283,0.0,0.0,84,0.00,,,0.00,0,Wunderground v.1.15,2013-02-19 10:15:00,
2013-02-19 05:25:00,27.5,23.0,30.16,WNW,283,0.0,0.0,83,0.00,,,0.00,0,Wunderground v.1.15,2013-02-19 10:25:00,
2013-02-19 05:30:00,27.2,22.7,30.15,WNW,283,0.0,0.0,83,0.00,,,0.00,0,Wunderground v.1.15,2013-02-19 10:30:00,
2013-02-19 05:35:00,26.9,22.4,30.15,WNW,283,0.0,0.0,83,0.00,,,0.00,0,Wunderground v.1.15,2013-02-19 10:35:00,
2013-02-19 05:45:00,26.5,22.3,30.14,WNW,283,0.0,0.0,84,0.00,,,0.00,0,Wunderground v.1.15,2013-02-19 10:45:00,
2013-02-19 05:50:00,26.3,22.1,30.14,WNW,283,0.0,0.0,84,0.00,,,0.00,0,Wunderground v.1.15,2013-02-19 10:50:00,
2013-02-19 05:55:00,26.1,21.9,30.14,WNW,283,0.0,0.0,84,0.00,,,0.00,0,Wunderground v.1.15,2013-02-19 10:55:00,
2013-02-19 06:05:00,25.8,21.9,30.13,WNW,283,0.0,0.0,85,0.00,,,0.00,0,Wunderground v.1.15,2013-02-19 11:05:00,
2013-02-19 06:15:00,25.4,21.5,30.13,WNW,283,0.0,0.0,85,0.00,,,0.00,0,Wunderground v.1.15,2013-02-19 11:15:00,
2013-02-19 06:20:00,25.2,21.3,30.12,WNW,283,0.0,0.0,85,0.00,,,0.00,0,Wunderground v.1.15,2013-02-19 11:20:00,
2013-02-19 06:30:00,24.8,21.5,30.12,WNW,283,0.0,0.0,87,0.00,,,0.00,0,Wunderground v.1.15,2013-02-19 11:30:00,
2013-02-19 06:35:00,24.7,21.4,30.12,WNW,283,0.0,0.0,87,0.00,,,0.00,0,Wunderground v.1.15,2013-02-19 11:35:00,
2013-02-19 06:45:00,24.6,21.3,30.11,WNW,283,0.0,0.0,87,0.00,,,0.00,7,Wunderground v.1.15,2013-02-19 11:45:00,
2013-02-19 06:55:00,24.5,21.5,30.11,WNW,283,0.0,0.0,88,0.00,,,0.00,12,Wunderground v.1.15,2013-02-19 11:55:00,
2013-02-19 07:05:00,24.5,21.7,30.11,WNW,283,0.0,0.0,89,0.00,,,0.00,19,Wunderground v.1.15,2013-02-19 12:05:00,
2013-02-19 07:10:00,24.5,21.7,30.11,WNW,283,0.0,0.0,89,0.00,,,0.00,25,Wunderground v.1.15,2013-02-19 12:10:00,
2013-02-19 07:15:00,24.6,22.1,30.11,WNW,283,0.0,0.0,90,0.00,,,0.00,39,Wunderground v.1.15,2013-02-19 12:15:00,
2013-02-19 07:25:00,25.0,22.7,30.12,WNW,283,0.0,0.0,91,0.00,,,0.00,67,Wunderground v.1.15,2013-02-19 12:25:00,
2013-02-19 07:30:00,25.4,23.4,30.12,WNW,282,0.0,0.0,92,0.00,,,0.00,81,Wunderground v.1.15,2013-02-19 12:30:00,
2013-02-19 07:35:00,26.1,24.1,30.11,WNW,282,0.0,0.0,92,0.00,,,0.00,95,Wunderground v.1.15,2013-02-19 12:35:00,
2013-02-19 07:45:00,27.9,26.4,30.11,WNW,282,0.0,0.0,94,0.00,,,0.00,121,Wunderground v.1.15,2013-02-19 12:45:00,
2013-02-19 07:50:00,29.2,27.9,30.11,WNW,282,0.0,0.0,95,0.00,,,0.00,134,Wunderground v.1.15,2013-02-19 12:50:00,
2013-02-19 08:00:00,31.2,29.9,30.10,WNW,282,0.0,0.0,95,0.00,,,0.00,151,Wunderground v.1.15,2013-02-19 13:00:00,
2013-02-19 08:10:00,33.3,32.3,30.11,WNW,282,0.0,0.0,96,0.00,,,0.00,165,Wunderground v.1.15,2013-02-19 13:10:00,
2013-02-19 08:15:00,34.4,33.4,30.10,WNW,282,0.0,1.0,96,0.00,,,0.00,207,Wunderground v.1.15,2013-02-19 13:15:00,
2013-02-19 08:25:00,35.9,34.9,30.10,SSE,156,0.0,0.0,96,0.00,,,0.00,243,Wunderground v.1.15,2013-02-19 13:25:00,
2013-02-19 08:35:00,37.5,36.2,30.10,South,174,0.0,1.0,95,0.00,,,0.00,271,Wunderground v.1.15,2013-02-19 13:35:00,
2013-02-19 08:45:00,39.1,37.0,30.10,South,182,1.0,3.0,92,0.00,,,0.00,292,Wunderground v.1.15,2013-02-19 13:45:00,
2013-02-19 08:50:00,39.8,36.8,30.10,South,184,1.0,2.0,89,0.00,,,0.00,308,Wunderground v.1.15,2013-02-19 13:50:00,
2013-02-19 09:00:00,41.0,36.8,30.09,South,187,1.0,1.0,85,0.00,,,0.00,353,Wunderground v.1.15,2013-02-19 14:00:00,
2013-02-19 09:10:00,42.2,37.1,30.09,SW,220,1.0,1.0,82,0.00,,,0.00,341,Wunderground v.1.15,2013-02-19 14:10:00,
2013-02-19 09:15:00,42.6,36.9,30.09,SSW,199,1.0,1.0,80,0.00,,,0.00,218,Wunderground v.1.15,2013-02-19 14:15:00,
2013-02-19 09:20:00,42.9,37.2,30.09,SE,129,1.0,1.0,80,0.00,,,0.00,404,Wunderground v.1.15,2013-02-19 14:20:00,
2013-02-19 09:29:00,43.4,37.3,30.08,SW,219,1.0,1.0,79,0.00,,,0.00,295,Wunderground v.1.15,2013-02-19 14:29:00,
2013-02-19 09:35:00,43.6,37.2,30.08,South,179,1.0,1.0,78,0.00,,,0.00,262,Wunderground v.1.15,2013-02-19 14:35:00,
2013-02-19 09:40:00,43.7,37.3,30.08,SSW,209,1.0,2.0,78,0.00,,,0.00,239,Wunderground v.1.15,2013-02-19 14:40:00,
2013-02-19 09:45:00,43.7,37.3,30.08,WSW,237,2.0,2.0,78,0.00,,,0.00,294,Wunderground v.1.15,2013-02-19 14:45:00,
2013-02-19 09:50:00,43.8,37.4,30.07,WSW,246,2.0,2.0,78,0.00,,,0.00,264,Wunderground v.1.15,2013-02-19 14:50:00,
2013-02-19 09:59:00,43.8,37.4,30.08,SSE,161,2.0,2.0,78,0.00,,,0.00,243,Wunderground v.1.15,2013-02-19 14:59:00,
2013-02-19 10:05:00,43.7,37.3,30.08,SSW,202,1.0,2.0,78,0.00,,,0.00,260,Wunderground v.1.15,2013-02-19 15:05:00,
2013-02-19 10:15:00,43.7,37.3,30.07,SSW,194,2.0,2.0,78,0.00,,,0.00,267,Wunderground v.1.15,2013-02-19 15:15:00,
2013-02-19 10:20:00,43.7,37.3,30.07,SSW,205,2.0,2.0,78,0.00,,,0.00,274,Wunderground v.1.15,2013-02-19 15:20:00,
2013-02-19 10:30:00,44.1,37.7,30.07,WSW,240,1.0,4.0,78,0.00,,,0.00,457,Wunderground v.1.15,2013-02-19 15:30:00,
2013-02-19 10:40:00,44.6,37.8,30.06,SSW,198,2.0,2.0,77,0.00,,,0.00,290,Wunderground v.1.15,2013-02-19 15:40:00,
2013-02-19 10:45:00,44.7,37.6,30.06,SW,229,2.0,2.0,76,0.00,,,0.00,396,Wunderground v.1.15,2013-02-19 15:45:00,
2013-02-19 10:50:00,44.8,37.7,30.05,SSE,147,2.0,2.0,76,0.00,,,0.00,290,Wunderground v.1.15,2013-02-19 15:50:00,
2013-02-19 11:00:00,44.9,37.8,30.05,South,190,2.0,2.0,76,0.00,,,0.00,345,Wunderground v.1.15,2013-02-19 16:00:00,
2013-02-19 11:10:00,45.4,38.3,30.05,South,177,2.0,2.0,76,0.00,,,0.00,675,Wunderground v.1.15,2013-02-19 16:10:00,
2013-02-19 11:20:00,46.1,38.6,30.04,South,183,2.0,2.0,75,0.00,,,0.00,559,Wunderground v.1.15,2013-02-19 16:20:00,
2013-02-19 11:30:00,46.4,38.6,30.04,West,259,2.0,4.0,74,0.00,,,0.00,366,Wunderground v.1.15,2013-02-19 16:30:00,
2013-02-19 11:35:00,46.2,38.4,30.03,WNW,296,2.0,4.0,74,0.00,,,0.00,541,Wunderground v.1.15,2013-02-19 16:35:00,
2013-02-19 11:45:00,46.4,38.6,30.03,SSW,200,2.0,2.0,74,0.00,,,0.00,258,Wunderground v.1.15,2013-02-19 16:45:00,
2013-02-19 11:55:00,46.3,38.8,30.02,SSE,163,2.0,2.0,75,0.00,,,0.00,207,Wunderground v.1.15,2013-02-19 16:55:00,
2013-02-19 12:04:00,46.2,38.7,30.01,South,187,2.0,6.0,75,0.00,,,0.00,265,Wunderground v.1.15,2013-02-19 17:04:00,
2013-02-19 12:09:00,46.1,39.0,30.01,SE,144,2.0,2.0,76,0.00,,,0.00,304,Wunderground v.1.15,2013-02-19 17:09:00,
2013-02-19 12:15:00,46.2,39.1,30.01,SSE,163,2.0,2.0,76,0.00,,,0.00,308,Wunderground v.1.15,2013-02-19 17:15:00,
2013-02-19 12:20:00,46.3,39.1,30.00,SSE,150,2.0,3.0,76,0.00,,,0.00,352,Wunderground v.1.15,2013-02-19 17:20:00,
2013-02-19 12:25:00,46.5,39.3,30.00,SSW,194,2.0,3.0,76,0.00,,,0.00,309,Wunderground v.1.15,2013-02-19 17:25:00,
2013-02-19 12:35:00,47.3,40.1,29.99,South,175,2.0,2.0,76,0.00,,,0.00,629,Wunderground v.1.15,2013-02-19 17:35:00,
2013-02-19 12:45:00,48.4,40.5,29.98,South,184,2.0,5.0,74,0.00,,,0.00,455,Wunderground v.1.15,2013-02-19 17:45:00,
2013-02-19 12:55:00,48.5,40.2,29.98,South,181,1.0,3.0,73,0.00,,,0.00,274,Wunderground v.1.15,2013-02-19 17:55:00,
2013-02-19 13:00:00,48.3,40.0,29.97,South,179,1.0,1.0,73,0.00,,,0.00,246,Wunderground v.1.15,2013-02-19 18:00:00,
2013-02-19 13:10:00,47.8,39.9,29.97,SSE,168,1.0,1.0,74,0.00,,,0.00,169,Wunderground v.1.15,2013-02-19 18:10:00,
2013-02-19 13:20:00,47.3,39.8,29.96,South,189,0.0,0.0,75,0.00,,,0.00,199,Wunderground v.1.15,2013-02-19 18:20:00,
2013-02-19 13:30:00,47.0,39.8,29.95,South,187,0.0,1.0,76,0.00,,,0.00,169,Wunderground v.1.15,2013-02-19 18:30:00,
2013-02-19 13:40:00,46.7,39.9,29.95,South,191,1.0,1.0,77,0.00,,,0.00,114,Wunderground v.1.15,2013-02-19 18:40:00,
2013-02-19 13:50:00,46.4,39.9,29.94,South,175,1.0,1.0,78,0.00,,,0.00,156,Wunderground v.1.15,2013-02-19 18:50:00,
2013-02-19 13:55:00,46.3,39.8,29.94,WSW,247,0.0,1.0,78,0.00,,,0.00,72,Wunderground v.1.15,2013-02-19 18:55:00,
2013-02-19 14:00:00,46.0,39.9,29.94,SW,229,0.0,0.0,79,0.00,,,0.00,114,Wunderground v.1.15,2013-02-19 19:00:00,
2013-02-19 14:09:00,45.5,39.7,29.93,SSW,213,0.0,0.0,80,0.00,,,0.00,188,Wunderground v.1.15,2013-02-19 19:09:00,
2013-02-19 14:15:00,45.4,39.6,29.93,SW,221,0.0,0.0,80,0.00,,,0.00,120,Wunderground v.1.15,2013-02-19 19:15:00,
2013-02-19 14:20:00,45.3,39.8,29.93,SSW,198,0.0,0.0,81,0.00,,,0.00,76,Wunderground v.1.15,2013-02-19 19:20:00,
2013-02-19 14:30:00,44.9,40.0,29.92,South,188,0.0,0.0,83,0.00,,,0.00,74,Wunderground v.1.15,2013-02-19 19:30:00,
2013-02-19 14:40:00,44.7,40.5,29.91,SW,233,1.0,1.0,85,0.00,,,0.00,72,Wunderground v.1.15,2013-02-19 19:40:00,
2013-02-19 14:50:00,44.3,40.4,29.91,SSW,202,1.0,1.0,86,0.00,,,0.00,47,Wunderground v.1.15,2013-02-19 19:50:00,
2013-02-19 14:55:00,44.1,40.2,29.91,South,185,1.0,1.0,86,0.00,,,0.01,39,Wunderground v.1.15,2013-02-19 19:55:00,
2013-02-19 15:00:00,43.8,39.9,29.90,SW,217,1.0,1.0,86,0.00,,,0.01,39,Wunderground v.1.15,2013-02-19 20:00:00,
2013-02-19 15:10:00,43.5,40.5,29.89,West,273,1.0,1.0,89,0.04,,,0.02,49,Wunderground v.1.15,2013-02-19 20:10:00,
2013-02-19 15:15:00,43.5,40.5,29.88,WSW,254,1.0,2.0,89,0.04,,,0.02,47,Wunderground v.1.15,2013-02-19 20:15:00,
2013-02-19 15:20:00,43.5,40.8,29.87,SW,223,1.0,1.0,90,0.04,,,0.02,37,Wunderground v.1.15,2013-02-19 20:20:00,
2013-02-19 15:30:00,43.4,40.7,29.86,South,184,2.0,2.0,90,0.00,,,0.02,53,Wunderground v.1.15,2013-02-19 20:30:00,
2013-02-19 15:40:00,43.2,40.8,29.85,SW,214,2.0,2.0,91,0.00,,,0.02,21,Wunderground v.1.15,2013-02-19 20:40:00,
2013-02-19 15:45:00,43.1,40.7,29.85,South,183,2.0,2.0,91,0.00,,,0.03,25,Wunderground v.1.15,2013-02-19 20:45:00,
2013-02-19 15:54:00,42.8,40.4,29.84,South,174,2.0,2.0,91,0.06,,,0.04,19,Wunderground v.1.15,2013-02-19 20:54:00,
2013-02-19 15:59:00,42.7,40.5,29.84,SE,141,2.0,2.0,92,0.06,,,0.04,9,Wunderground v.1.15,2013-02-19 20:59:00,
2013-02-19 16:05:00,42.7,40.5,29.84,South,184,1.0,2.0,92,0.06,,,0.05,14,Wunderground v.1.15,2013-02-19 21:05:00,
2013-02-19 16:10:00,42.7,40.8,29.83,SSW,210,1.0,5.0,93,0.06,,,0.05,9,Wunderground v.1.15,2013-02-19 21:10:00,
2013-02-19 16:15:00,42.7,40.8,29.83,SSE,161,1.0,5.0,93,0.05,,,0.05,14,Wunderground v.1.15,2013-02-19 21:15:00,
2013-02-19 16:25:00,42.7,40.8,29.81,South,169,1.0,2.0,93,0.04,,,0.06,19,Wunderground v.1.15,2013-02-19 21:25:00,
2013-02-19 16:30:00,42.6,41.0,29.81,West,269,2.0,3.0,94,0.11,,,0.07,5,Wunderground v.1.15,2013-02-19 21:30:00,
2013-02-19 16:35:00,42.8,41.2,29.81,SSE,162,2.0,3.0,94,0.07,,,0.07,7,Wunderground v.1.15,2013-02-19 21:35:00,
2013-02-19 16:45:00,42.8,41.2,29.80,SSW,204,0.0,1.0,94,0.05,,,0.08,7,Wunderground v.1.15,2013-02-19 21:45:00,
2013-02-19 16:55:00,42.9,41.3,29.79,SSE,149,0.0,0.0,94,0.04,,,0.09,5,Wunderground v.1.15,2013-02-19 21:55:00,
2013-02-19 17:00:00,42.9,41.3,29.79,SSE,149,0.0,0.0,94,0.07,,,0.09,0,Wunderground v.1.15,2013-02-19 22:00:00,
2013-02-19 17:10:00,42.8,41.2,29.78,SSE,149,0.0,0.0,94,0.18,,,0.13,0,Wunderground v.1.15,2013-02-19 22:10:00,
2013-02-19 17:15:00,42.7,41.1,29.78,SSE,149,0.0,0.0,94,0.14,,,0.15,0,Wunderground v.1.15,2013-02-19 22:15:00,
2013-02-19 17:24:00,42.5,40.9,29.78,SW,216,1.0,1.0,94,0.22,,,0.18,0,Wunderground v.1.15,2013-02-19 22:24:00,
2013-02-19 17:29:00,42.4,40.8,29.78,SW,216,0.0,0.0,94,0.19,,,0.19,0,Wunderground v.1.15,2013-02-19 22:29:00,
2013-02-19 17:35:00,42.4,40.8,29.78,SW,216,0.0,0.0,94,0.08,,,0.20,0,Wunderground v.1.15,2013-02-19 22:35:00,
2013-02-19 17:40:00,42.4,41.1,29.77,SSW,196,0.0,0.0,95,0.08,,,0.20,0,Wunderground v.1.15,2013-02-19 22:40:00,
2013-02-19 17:45:00,42.4,41.1,29.77,SSW,196,0.0,0.0,95,0.05,,,0.20,0,Wunderground v.1.15,2013-02-19 22:45:00,
2013-02-19 17:55:00,42.7,41.4,29.76,SSW,197,1.0,1.0,95,0.00,,,0.20,0,Wunderground v.1.15,2013-02-19 22:55:00,
2013-02-19 18:00:00,42.9,41.6,29.75,South,180,0.0,0.0,95,0.00,,,0.20,0,Wunderground v.1.15,2013-02-19 23:00:00,
2013-02-19 18:05:00,43.1,42.0,29.75,South,175,0.0,0.0,96,0.00,,,0.21,0,Wunderground v.1.15,2013-02-19 23:05:00,
2013-02-19 18:15:00,43.3,42.2,29.75,SW,228,1.0,1.0,96,0.00,,,0.21,0,Wunderground v.1.15,2013-02-19 23:15:00,
2013-02-19 18:24:00,43.6,42.5,29.74,SW,223,1.0,1.0,96,0.04,,,0.22,0,Wunderground v.1.15,2013-02-19 23:24:00,
2013-02-19 18:30:00,43.6,42.5,29.74,WSW,238,1.0,1.0,96,0.04,,,0.22,0,Wunderground v.1.15,2013-02-19 23:30:00,
2013-02-19 18:39:00,43.7,42.6,29.73,SSE,168,0.0,2.0,96,0.00,,,0.22,0,Wunderground v.1.15,2013-02-19 23:39:00,
2013-02-19 18:45:00,43.7,42.6,29.72,South,175,0.0,2.0,96,0.00,,,0.23,0,Wunderground v.1.15,2013-02-19 23:45:00,
2013-02-19 18:54:00,43.6,42.5,29.71,WSW,254,0.0,0.0,96,0.00,,,0.23,0,Wunderground v.1.15,2013-02-19 23:54:00,
2013-02-19 18:59:00,43.6,42.5,29.71,WSW,239,0.0,0.0,96,0.00,,,0.23,0,Wunderground v.1.15,2013-02-19 23:59:00,
2013-02-19 19:05:00,43.6,42.5,29.71,SW,229,0.0,1.0,96,0.00,,,0.23,0,Wunderground v.1.15,2013-02-20 00:05:00,
2013-02-19 19:10:00,43.6,42.5,29.70,SSW,208,1.0,1.0,96,0.00,,,0.23,0,Wunderground v.1.15,2013-02-20 00:10:00,
2013-02-19 19:20:00,43.7,42.6,29.70,SSW,207,1.0,1.0,96,0.00,,,0.24,0,Wunderground v.1.15,2013-02-20 00:20:00,
2013-02-19 19:25:00,43.6,42.5,29.70,SW,217,1.0,1.0,96,0.00,,,0.24,0,Wunderground v.1.15,2013-02-20 00:25:00,
2013-02-19 19:30:00,43.4,42.3,29.71,West,278,1.0,1.0,96,0.17,,,0.25,0,Wunderground v.1.15,2013-02-20 00:30:00,
2013-02-19 19:40:00,43.8,42.7,29.68,WNW,285,2.0,2.0,96,0.24,,,0.30,0,Wunderground v.1.15,2013-02-20 00:40:00,
2013-02-19 19:49:00,44.5,43.4,29.68,SW,216,1.0,1.0,96,0.11,,,0.31,0,Wunderground v.1.15,2013-02-20 00:49:00,
2013-02-19 19:54:00,44.9,44.1,29.67,West,265,2.0,3.0,97,0.10,,,0.32,0,Wunderground v.1.15,2013-02-20 00:54:00,
2013-02-19 19:59:00,45.0,44.2,29.68,West,263,3.0,4.0,97,0.18,,,0.34,0,Wunderground v.1.15,2013-02-20 00:59:00,
2013-02-19 20:05:00,45.2,44.4,29.68,West,279,3.0,4.0,97,0.12,,,0.35,0,Wunderground v.1.15,2013-02-20 01:05:00,
2013-02-19 20:15:00,45.1,44.0,29.68,WSW,257,2.0,3.0,96,0.10,,,0.36,0,Wunderground v.1.15,2013-02-20 01:15:00,
2013-02-19 20:24:00,44.7,43.6,29.68,West,263,1.0,2.0,96,0.05,,,0.37,0,Wunderground v.1.15,2013-02-20 01:24:00,
2013-02-19 20:30:00,44.6,43.5,29.68,SSE,148,2.0,2.0,96,0.07,,,0.38,0,Wunderground v.1.15,2013-02-20 01:30:00,
2013-02-19 20:40:00,44.4,43.3,29.68,WSW,255,2.0,2.0,96,0.05,,,0.38,0,Wunderground v.1.15,2013-02-20 01:40:00,
2013-02-19 20:45:00,44.3,43.2,29.67,WNW,284,2.0,2.0,96,0.04,,,0.39,0,Wunderground v.1.15,2013-02-20 01:45:00,
2013-02-19 20:55:00,44.1,43.0,29.67,West,271,1.0,2.0,96,0.04,,,0.39,0,Wunderground v.1.15,2013-02-20 01:55:00,
2013-02-19 21:05:00,43.9,42.8,29.67,South,184,2.0,3.0,96,0.00,,,0.39,0,Wunderground v.1.15,2013-02-20 02:05:00,
2013-02-19 21:14:00,43.7,42.6,29.66,SSW,213,1.0,1.0,96,0.00,,,0.39,0,Wunderground v.1.15,2013-02-20 02:14:00,
2013-02-19 21:20:00,43.6,42.5,29.65,West,266,1.0,1.0,96,0.00,,,0.39,0,Wunderground v.1.15,2013-02-20 02:20:00,
2013-02-19 21:25:00,43.5,42.4,29.65,West,279,1.0,1.0,96,0.00,,,0.39,0,Wunderground v.1.15,2013-02-20 02:25:00,
2013-02-19 21:35:00,43.3,42.2,29.66,West,272,1.0,1.0,96,0.00,,,0.39,0,Wunderground v.1.15,2013-02-20 02:35:00,
2013-02-19 21:40:00,43.3,42.2,29.66,West,277,1.0,1.0,96,0.00,,,0.39,0,Wunderground v.1.15,2013-02-20 02:40:00,
2013-02-19 21:50:00,43.2,42.1,29.66,West,270,1.0,1.0,96,0.00,,,0.39,0,Wunderground v.1.15,2013-02-20 02:50:00,
2013-02-19 22:00:00,43.2,42.1,29.66,WNW,285,2.0,2.0,96,0.00,,,0.39,0,Wunderground v.1.15,2013-02-20 03:00:00,
2013-02-19 22:05:00,43.1,42.0,29.66,West,276,2.0,2.0,96,0.00,,,0.39,0,Wunderground v.1.15,2013-02-20 03:05:00,
2013-02-19 22:10:00,43.1,42.0,29.65,WNW,286,2.0,3.0,96,0.00,,,0.39,0,Wunderground v.1.15,2013-02-20 03:10:00,
2013-02-19 22:15:00,43.0,41.9,29.66,West,275,2.0,3.0,96,0.00,,,0.39,0,Wunderground v.1.15,2013-02-20 03:15:00,
2013-02-19 22:24:00,43.0,41.9,29.65,WNW,288,1.0,4.0,96,0.00,,,0.39,0,Wunderground v.1.15,2013-02-20 03:24:00,
2013-02-19 22:30:00,42.9,41.8,29.65,WNW,300,1.0,1.0,96,0.00,,,0.39,0,Wunderground v.1.15,2013-02-20 03:30:00,
2013-02-19 22:35:00,42.9,41.8,29.65,WNW,296,2.0,2.0,96,0.00,,,0.39,0,Wunderground v.1.15,2013-02-20 03:35:00,
2013-02-19 22:45:00,42.7,41.6,29.65,West,265,1.0,2.0,96,0.00,,,0.39,0,Wunderground v.1.15,2013-02-20 03:45:00,
2013-02-19 22:55:00,42.6,41.5,29.65,West,272,1.0,2.0,96,0.00,,,0.39,0,Wunderground v.1.15,2013-02-20 03:55:00,
2013-02-19 23:05:00,42.5,41.4,29.66,West,278,2.0,3.0,96,0.00,,,0.39,0,Wunderground v.1.15,2013-02-20 04:05:00,
2013-02-19 23:10:00,42.4,41.3,29.66,NW,315,3.0,3.0,96,0.00,,,0.39,0,Wunderground v.1.15,2013-02-20 04:10:00,
2013-02-19 23:20:00,42.3,41.2,29.66,WNW,283,2.0,2.0,96,0.00,,,0.39,0,Wunderground v.1.15,2013-02-20 04:20:00,
2013-02-19 23:30:00,42.0,40.9,29.66,WNW,298,3.0,5.0,96,0.00,,,0.39,0,Wunderground v.1.15,2013-02-20 04:30:00,
2013-02-19 23:40:00,41.5,40.2,29.66,WNW,291,4.0,4.0,95,0.00,,,0.39,0,Wunderground v.1.15,2013-02-20 04:40:00,
2013-02-19 23:45:00,41.2,39.6,29.66,SSW,206,5.0,5.0,94,0.00,,,0.39,0,Wunderground v.1.15,2013-02-20 04:45:00,
2013-02-19 23:55:00,40.7,38.3,29.67,WNW,295,3.0,4.0,91,0.00,,,0.39,0,Wunderground v.1.15,2013-02-20 04:55:00,